This demonstration page uses our WeatherBlox Daily Observations layout. Learn more.

Left ArrowRight Arrow

31.31129, -92.44514

Hourly Observations for December 27, 2021

Temp ( °F °C ) Dew Point ( °F °C ) Humidity (%) Winds ( mph kmh ) Pressure ( in mb ) Visibility ( mi km ) Precip ( " mm )
12:53 am 00:53 Cloudy 71 21.7 65 18.3 81 81 SSW 10 17 29.92 1013 10 16 0.00 0.00
1:53 am 01:53 Mostly Cloudy 70 21.1 64 17.8 82 82 SSW 8 13 29.93 1014 10 16 0.00 0.00
2:09 am 02:09 Cloudy 70 21.1 64 17.8 82 82 SW 8 13 29.93 1013 10 16 0.00 0.00
2:53 am 02:53 Cloudy 70 21.1 64 17.8 82 82 SSW 7 11 29.95 1014 10 16 0.00 0.00
3:53 am 03:53 Cloudy 69 20.6 64 17.8 84 84 SSW 8 13 29.94 1014 10 16 0.00 0.00
4:53 am 04:53 Cloudy 70 21.1 64 17.8 82 82 S 9 15 29.93 1014 10 16 0.00 0.00
5:53 am 05:53 Cloudy 70 21.1 64 17.8 82 82 S 8 13 29.94 1014 10 16 0.00 0.00
6:53 am 06:53 Cloudy 70 21.1 64 17.8 82 82 S 7 11 29.94 1014 10 16 0.00 0.00
7:53 am 07:53 Cloudy 70 21.1 64 17.8 82 82 S 9 15 29.95 1014 10 16 0.00 0.00
8:53 am 08:53 Partly Cloudy 73 22.8 66 18.9 79 79 S 10 17 29.95 1014 10 16 0.00 0.00
9:53 am 09:53 Sunny 75 23.9 66 18.9 74 74 SSW 12 19 29.95 1014 10 16 0.00 0.00
10:53 am 10:53 Sunny 78 25.6 65 18.3 64 64 SSW 15 24 29.93 1014 10 16 0.00 0.00
11:53 am 11:53 Cloudy 78 25.6 65 18.3 64 64 SW 14 22 29.91 1013 10 16 0.00 0.00
12:53 pm 12:53 Cloudy 78 25.6 63 17.2 60 60 SW 8 13 29.89 1012 10 16 0.00 0.00
1:53 pm 13:53 Cloudy 78 25.6 63 17.2 60 60 SSW 15 24 29.88 1012 10 16 0.00 0.00
2:53 pm 14:53 Cloudy 78 25.6 63 17.2 60 60 SSW 12 19 29.86 1011 10 16 0.00 0.00
3:53 pm 15:53 Cloudy 78 25.6 62 16.7 58 58 SSW 14 22 29.85 1011 10 16 0.00 0.00
4:53 pm 16:53 Cloudy 76 24.4 61 16.1 60 60 S 8 13 29.86 1011 10 16 0.00 0.00
5:53 pm 17:53 Cloudy 74 23.3 62 16.7 67 67 S 12 19 29.86 1011 10 16 0.00 0.00
6:53 pm 18:53 Cloudy 73 22.8 62 16.7 69 69 S 12 19 29.86 1011 10 16 0.00 0.00
7:53 pm 19:53 Cloudy 73 22.8 61 16.1 66 66 S 10 17 29.86 1011 10 16 0.00 0.00
8:53 pm 20:53 Cloudy 71 21.7 60 15.6 68 68 S 7 11 29.85 1011 10 16 0.00 0.00
9:53 pm 21:53 Mostly Cloudy 69 20.6 60 15.6 73 73 S 8 13 29.85 1011 10 16 0.00 0.00
10:53 pm 22:53 Mostly Cloudy 67 19.4 61 16.1 81 81 SSE 6 9 29.85 1011 10 16 0.00 0.00
11:53 pm 23:53 Mostly Cloudy 65 18.3 61 16.1 87 87 SSE 6 9 29.84 1011 10 16 0.00 0.00

Powered by AerisWeather